NJUST-1 (42722 NORAD) Tracking and Keplerian Element Data

This shows tracking and keplerian element data for the satellite.

Feedback or suggestion? Click here.




ElementValue
Catalog42722
NameNJUST-1
Epoch Orbit10380
Epoch Day77.73567787
Epoch Year2019
RAAN32.1734
Inclination51.6358
Eccentricity0.0003613
Argument of Perigee150.187
Mean Anonmoly277.8511
Mean Motion15.82668897
Decay Rate0.00067899
L11 42722U 98067MB 19077.73567787 .00067899 00000-0 31663-3 0 9992
L22 42722 51.6358 32.1734 0003613 150.1870 277.8511 15.82668897103805

Live tracking and technical data element details for NJUST-1 (NORAD 42722). NJUST-1 can be tracked NOW for your location showing map with azimuth and elevation plus other details from your city location.

Track the satellite on the map from your city or location and see movement details for azimuth, elevation, latitude, longitude, range, height, and movement on the map or in text.







IsCatalogInMostPopularTable: catalog: 42722, numindb: 209
Update: records affected: 1



GetName: 42722 NJUST-1

Hit Count: updated at: Wed, 20 Mar 2019 05:38:57 GMT